Time,TemperatureF,DewpointF,PressureIn,WindDirection,WindDirectionDegrees,WindSpeedMPH,WindSpeedGustMPH,Humidity,HourlyPrecipIn,Conditions,Clouds,dailyrainin,SoftwareType,DateUTC
2013-07-10 00:01:00,63.0,48.0,-100.00,North,-999,0.0,0.0,58,-99.99,,,-99.99,,2013-07-10 07:01:00,
2013-07-10 00:11:00,63.0,49.0,-100.00,North,-999,0.0,0.0,60,-99.99,,,-99.99,,2013-07-10 07:11:00,
2013-07-10 00:22:00,63.0,49.0,-100.00,North,-999,0.0,0.0,60,-99.99,,,-99.99,,2013-07-10 07:22:00,
2013-07-10 00:32:00,62.0,48.0,-100.00,North,-999,0.0,0.0,61,-99.99,,,-99.99,,2013-07-10 07:32:00,
2013-07-10 00:43:00,61.0,48.0,-100.00,North,-999,0.0,0.0,62,-99.99,,,-99.99,,2013-07-10 07:43:00,
2013-07-10 00:53:00,61.0,48.0,-100.00,North,-999,0.0,0.0,62,-99.99,,,-99.99,,2013-07-10 07:53:00,
2013-07-10 01:01:00,60.0,48.0,-100.00,North,-999,0.0,0.0,63,-99.99,,,-99.99,,2013-07-10 08:01:00,
2013-07-10 01:11:00,59.0,48.0,-100.00,North,-999,0.0,0.0,65,-99.99,,,-99.99,,2013-07-10 08:11:00,
2013-07-10 01:32:00,59.0,47.0,-100.00,North,-999,0.0,0.0,66,-99.99,,,-99.99,,2013-07-10 08:32:00,
2013-07-10 02:02:00,58.0,48.0,-100.00,North,-999,0.0,0.0,70,-99.99,,,-99.99,,2013-07-10 09:02:00,
2013-07-10 02:21:00,57.0,48.0,-100.00,North,-999,0.0,0.0,71,-99.99,,,-99.99,,2013-07-10 09:21:00,
2013-07-10 02:32:00,56.0,47.0,-100.00,North,-999,0.0,0.0,72,-99.99,,,-99.99,,2013-07-10 09:32:00,
2013-07-10 02:53:00,56.0,47.0,-100.00,North,-999,0.0,0.0,72,-99.99,,,-99.99,,2013-07-10 09:53:00,
2013-07-10 03:01:00,56.0,47.0,-100.00,North,-999,0.0,0.0,73,-99.99,,,-99.99,,2013-07-10 10:01:00,
2013-07-10 03:13:00,56.0,47.0,-100.00,North,-999,0.0,0.0,73,-99.99,,,-99.99,,2013-07-10 10:13:00,
2013-07-10 03:23:00,55.0,47.0,-100.00,North,-999,0.0,0.0,74,-99.99,,,-99.99,,2013-07-10 10:23:00,
2013-07-10 03:32:00,55.0,47.0,-100.00,North,-999,0.0,0.0,74,-99.99,,,-99.99,,2013-07-10 10:32:00,
2013-07-10 03:50:00,-999.0,-99.9,-100.00,North,-999,0.0,0.0,-999,-99.99,,,-99.99,,2013-07-10 10:50:00,
2013-07-10 04:00:00,-999.0,-99.9,-100.00,North,-999,0.0,0.0,-999,-99.99,,,-99.99,,2013-07-10 11:00:00,
2013-07-10 04:22:00,54.0,47.0,-100.00,North,-999,0.0,0.0,77,-99.99,,,-99.99,,2013-07-10 11:22:00,
2013-07-10 04:33:00,54.0,48.0,-100.00,North,-999,0.0,0.0,78,-99.99,,,-99.99,,2013-07-10 11:33:00,
2013-07-10 04:43:00,54.0,48.0,-100.00,North,-999,0.0,0.0,78,-99.99,,,-99.99,,2013-07-10 11:43:00,
2013-07-10 04:52:00,54.0,48.0,-100.00,North,-999,0.0,0.0,78,-99.99,,,-99.99,,2013-07-10 11:52:00,
2013-07-10 05:01:00,54.0,47.0,-100.00,North,-999,0.0,0.0,78,-99.99,,,-99.99,,2013-07-10 12:01:00,
2013-07-10 05:22:00,54.0,47.0,-100.00,North,-999,0.0,0.0,79,-99.99,,,-99.99,,2013-07-10 12:22:00,
2013-07-10 05:33:00,54.0,48.0,-100.00,North,-999,0.0,0.0,80,-99.99,,,-99.99,,2013-07-10 12:33:00,
2013-07-10 05:53:00,54.0,48.0,-100.00,North,-999,0.0,0.0,80,-99.99,,,-99.99,,2013-07-10 12:53:00,
2013-07-10 06:01:00,54.0,48.0,-100.00,North,-999,0.0,0.0,81,-99.99,,,-99.99,,2013-07-10 13:01:00,
2013-07-10 06:11:00,54.0,48.0,-100.00,North,-999,0.0,0.0,81,-99.99,,,-99.99,,2013-07-10 13:11:00,
2013-07-10 06:21:00,54.0,48.0,-100.00,North,-999,0.0,0.0,81,-99.99,,,-99.99,,2013-07-10 13:21:00,
2013-07-10 06:52:00,53.0,48.0,-100.00,North,-999,0.0,0.0,82,-99.99,,,-99.99,,2013-07-10 13:52:00,
2013-07-10 07:01:00,55.0,49.0,-100.00,North,-999,0.0,0.0,80,-99.99,,,-99.99,,2013-07-10 14:01:00,
2013-07-10 07:43:00,61.0,51.0,-100.00,North,-999,0.0,0.0,68,-99.99,,,-99.99,,2013-07-10 14:43:00,
2013-07-10 07:53:00,61.0,51.0,-100.00,North,-999,0.0,0.0,68,-99.99,,,-99.99,,2013-07-10 14:53:00,
2013-07-10 08:11:00,62.0,51.0,-100.00,North,-999,0.0,0.0,66,-99.99,,,-99.99,,2013-07-10 15:11:00,
2013-07-10 08:22:00,63.0,50.0,-100.00,North,-999,0.0,0.0,63,-99.99,,,-99.99,,2013-07-10 15:22:00,
2013-07-10 08:34:00,64.0,51.0,-100.00,North,-999,0.0,0.0,62,-99.99,,,-99.99,,2013-07-10 15:34:00,
2013-07-10 08:52:00,66.0,51.0,-100.00,North,-999,0.0,0.0,59,-99.99,,,-99.99,,2013-07-10 15:52:00,
2013-07-10 09:01:00,67.0,52.0,-100.00,North,-999,0.0,0.0,58,-99.99,,,-99.99,,2013-07-10 16:01:00,
2013-07-10 09:11:00,67.0,52.0,-100.00,North,-999,0.0,0.0,58,-99.99,,,-99.99,,2013-07-10 16:11:00,
2013-07-10 09:22:00,69.0,52.0,-100.00,North,-999,0.0,0.0,56,-99.99,,,-99.99,,2013-07-10 16:22:00,
2013-07-10 09:33:00,70.0,52.0,-100.00,North,-999,0.0,0.0,53,-99.99,,,-99.99,,2013-07-10 16:33:00,
2013-07-10 09:44:00,72.0,52.0,-100.00,North,-999,0.0,0.0,50,-99.99,,,-99.99,,2013-07-10 16:44:00,
2013-07-10 09:53:00,72.0,52.0,-100.00,North,-999,0.0,0.0,50,-99.99,,,-99.99,,2013-07-10 16:53:00,
2013-07-10 10:01:00,73.0,51.0,-100.00,North,-999,0.0,0.0,47,-99.99,,,-99.99,,2013-07-10 17:01:00,
2013-07-10 10:11:00,75.0,51.0,-100.00,North,-999,0.0,0.0,43,-99.99,,,-99.99,,2013-07-10 17:11:00,
2013-07-10 10:23:00,75.0,51.0,-100.00,North,-999,0.0,0.0,43,-99.99,,,-99.99,,2013-07-10 17:23:00,
2013-07-10 10:32:00,75.0,51.0,-100.00,North,-999,0.0,0.0,43,-99.99,,,-99.99,,2013-07-10 17:32:00,
2013-07-10 10:42:00,75.0,51.0,-100.00,North,-999,0.0,0.0,43,-99.99,,,-99.99,,2013-07-10 17:42:00,
2013-07-10 11:02:00,80.0,50.0,-100.00,North,-999,0.0,0.0,35,-99.99,,,-99.99,,2013-07-10 18:02:00,
2013-07-10 11:21:00,81.0,49.0,-100.00,North,-999,0.0,0.0,33,-99.99,,,-99.99,,2013-07-10 18:21:00,
2013-07-10 11:32:00,81.0,47.0,-100.00,North,-999,0.0,0.0,30,-99.99,,,-99.99,,2013-07-10 18:32:00,
2013-07-10 11:44:00,82.0,47.0,-100.00,North,-999,0.0,0.0,29,-99.99,,,-99.99,,2013-07-10 18:44:00,
2013-07-10 11:53:00,82.0,47.0,-100.00,North,-999,0.0,0.0,29,-99.99,,,-99.99,,2013-07-10 18:53:00,
2013-07-10 12:01:00,83.0,48.0,-100.00,North,-999,0.0,0.0,29,-99.99,,,-99.99,,2013-07-10 19:01:00,
2013-07-10 12:21:00,84.0,48.0,-100.00,North,-999,0.0,0.0,29,-99.99,,,-99.99,,2013-07-10 19:21:00,
2013-07-10 12:32:00,85.0,47.0,-100.00,North,-999,0.0,0.0,27,-99.99,,,-99.99,,2013-07-10 19:32:00,
2013-07-10 12:42:00,86.0,48.0,-100.00,North,-999,0.0,0.0,27,-99.99,,,-99.99,,2013-07-10 19:42:00,
2013-07-10 12:53:00,86.0,48.0,-100.00,North,-999,0.0,0.0,27,-99.99,,,-99.99,,2013-07-10 19:53:00,
2013-07-10 13:01:00,85.0,47.0,-100.00,North,-999,0.0,0.0,26,-99.99,,,-99.99,,2013-07-10 20:01:00,
2013-07-10 13:22:00,85.0,47.0,-100.00,North,-999,0.0,0.0,26,-99.99,,,-99.99,,2013-07-10 20:22:00,
2013-07-10 13:32:00,86.0,46.0,-100.00,North,-999,0.0,0.0,25,-99.99,,,-99.99,,2013-07-10 20:32:00,
2013-07-10 13:43:00,86.0,46.0,-100.00,North,-999,0.0,0.0,25,-99.99,,,-99.99,,2013-07-10 20:43:00,
2013-07-10 13:52:00,86.0,46.0,-100.00,North,-999,0.0,0.0,25,-99.99,,,-99.99,,2013-07-10 20:52:00,
2013-07-10 14:01:00,88.0,46.0,-100.00,North,-999,0.0,0.0,24,-99.99,,,-99.99,,2013-07-10 21:01:00,
2013-07-10 14:11:00,89.0,47.0,-100.00,North,-999,0.0,0.0,24,-99.99,,,-99.99,,2013-07-10 21:11:00,
2013-07-10 14:21:00,89.0,47.0,-100.00,North,-999,0.0,0.0,24,-99.99,,,-99.99,,2013-07-10 21:21:00,
2013-07-10 14:32:00,85.0,44.0,-100.00,North,-999,0.0,0.0,24,-99.99,,,-99.99,,2013-07-10 21:32:00,
2013-07-10 14:52:00,90.0,48.0,-100.00,North,-999,0.0,0.0,24,-99.99,,,-99.99,,2013-07-10 21:52:00,
2013-07-10 15:01:00,90.0,47.0,-100.00,North,-999,0.0,0.0,23,-99.99,,,-99.99,,2013-07-10 22:01:00,
2013-07-10 15:11:00,90.0,47.0,-100.00,North,-999,0.0,0.0,23,-99.99,,,-99.99,,2013-07-10 22:11:00,
2013-07-10 15:21:00,90.0,47.0,-100.00,North,-999,0.0,0.0,23,-99.99,,,-99.99,,2013-07-10 22:21:00,
2013-07-10 15:33:00,90.0,47.0,-100.00,North,-999,0.0,0.0,23,-99.99,,,-99.99,,2013-07-10 22:33:00,
2013-07-10 16:01:00,90.0,47.0,-100.00,North,-999,0.0,0.0,23,-99.99,,,-99.99,,2013-07-10 23:01:00,
2013-07-10 16:21:00,90.0,46.0,-100.00,North,-999,0.0,0.0,22,-99.99,,,-99.99,,2013-07-10 23:21:00,
2013-07-10 16:32:00,88.0,46.0,-100.00,North,-999,0.0,0.0,23,-99.99,,,-99.99,,2013-07-10 23:32:00,
2013-07-10 16:42:00,88.0,46.0,-100.00,North,-999,0.0,0.0,23,-99.99,,,-99.99,,2013-07-10 23:42:00,
2013-07-10 16:52:00,89.0,46.0,-100.00,North,-999,0.0,0.0,22,-99.99,,,-99.99,,2013-07-10 23:52:00,
2013-07-10 17:01:00,88.0,46.0,-100.00,North,-999,0.0,0.0,23,-99.99,,,-99.99,,2013-07-11 00:01:00,
2013-07-10 17:11:00,88.0,46.0,-100.00,North,-999,0.0,0.0,23,-99.99,,,-99.99,,2013-07-11 00:11:00,
2013-07-10 17:22:00,88.0,47.0,-100.00,North,-999,0.0,0.0,24,-99.99,,,-99.99,,2013-07-11 00:22:00,
2013-07-10 17:32:00,86.0,45.0,-100.00,North,-999,0.0,0.0,24,-99.99,,,-99.99,,2013-07-11 00:32:00,
2013-07-10 17:42:00,86.0,46.0,-100.00,North,-999,0.0,0.0,25,-99.99,,,-99.99,,2013-07-11 00:42:00,
2013-07-10 17:52:00,86.0,46.0,-100.00,North,-999,0.0,0.0,25,-99.99,,,-99.99,,2013-07-11 00:52:00,
2013-07-10 18:01:00,87.0,47.0,-100.00,North,-999,0.0,0.0,25,-99.99,,,-99.99,,2013-07-11 01:01:00,
2013-07-10 18:22:00,86.0,48.0,-100.00,North,-999,0.0,0.0,27,-99.99,,,-99.99,,2013-07-11 01:22:00,
2013-07-10 18:32:00,84.0,48.0,-100.00,North,-999,0.0,0.0,29,-99.99,,,-99.99,,2013-07-11 01:32:00,
2013-07-10 18:52:00,83.0,48.0,-100.00,North,-999,0.0,0.0,30,-99.99,,,-99.99,,2013-07-11 01:52:00,
2013-07-10 19:02:00,81.0,47.0,-100.00,North,-999,0.0,0.0,30,-99.99,,,-99.99,,2013-07-11 02:02:00,
2013-07-10 19:11:00,81.0,47.0,-100.00,North,-999,0.0,0.0,30,-99.99,,,-99.99,,2013-07-11 02:11:00,
2013-07-10 19:22:00,78.0,45.0,-100.00,North,-999,0.0,0.0,31,-99.99,,,-99.99,,2013-07-11 02:22:00,
2013-07-10 19:32:00,77.0,44.0,-100.00,North,-999,0.0,0.0,31,-99.99,,,-99.99,,2013-07-11 02:32:00,
2013-07-10 19:43:00,77.0,44.0,-100.00,North,-999,0.0,0.0,32,-99.99,,,-99.99,,2013-07-11 02:43:00,
2013-07-10 19:53:00,77.0,44.0,-100.00,North,-999,0.0,0.0,32,-99.99,,,-99.99,,2013-07-11 02:53:00,
2013-07-10 20:01:00,77.0,45.0,-100.00,North,-999,0.0,0.0,32,-99.99,,,-99.99,,2013-07-11 03:01:00,
2013-07-10 20:21:00,76.0,44.0,-100.00,North,-999,0.0,0.0,33,-99.99,,,-99.99,,2013-07-11 03:21:00,
2013-07-10 20:33:00,74.0,44.0,-100.00,North,-999,0.0,0.0,34,-99.99,,,-99.99,,2013-07-11 03:33:00,
2013-07-10 20:52:00,72.0,43.0,-100.00,North,-999,0.0,0.0,35,-99.99,,,-99.99,,2013-07-11 03:52:00,
2013-07-10 21:01:00,71.0,42.0,-100.00,North,-999,0.0,0.0,35,-99.99,,,-99.99,,2013-07-11 04:01:00,
2013-07-10 21:22:00,70.0,42.0,-100.00,North,-999,0.0,0.0,36,-99.99,,,-99.99,,2013-07-11 04:22:00,
2013-07-10 21:32:00,70.0,42.0,-100.00,North,-999,0.0,0.0,36,-99.99,,,-99.99,,2013-07-11 04:32:00,
2013-07-10 21:42:00,69.0,41.0,-100.00,North,-999,0.0,0.0,36,-99.99,,,-99.99,,2013-07-11 04:42:00,
2013-07-10 21:53:00,69.0,41.0,-100.00,North,-999,0.0,0.0,36,-99.99,,,-99.99,,2013-07-11 04:53:00,
2013-07-10 22:01:00,68.0,40.0,-100.00,North,-999,0.0,0.0,36,-99.99,,,-99.99,,2013-07-11 05:01:00,
2013-07-10 22:12:00,68.0,40.0,-100.00,North,-999,0.0,0.0,36,-99.99,,,-99.99,,2013-07-11 05:12:00,
2013-07-10 22:22:00,68.0,40.0,-100.00,North,-999,0.0,0.0,36,-99.99,,,-99.99,,2013-07-11 05:22:00,
2013-07-10 22:32:00,67.0,40.0,-100.00,North,-999,0.0,0.0,37,-99.99,,,-99.99,,2013-07-11 05:32:00,
2013-07-10 22:43:00,67.0,40.0,-100.00,North,-999,0.0,0.0,37,-99.99,,,-99.99,,2013-07-11 05:43:00,
2013-07-10 22:52:00,67.0,40.0,-100.00,North,-999,0.0,0.0,37,-99.99,,,-99.99,,2013-07-11 05:52:00,
2013-07-10 23:01:00,66.0,40.0,-100.00,North,-999,0.0,0.0,38,-99.99,,,-99.99,,2013-07-11 06:01:00,
2013-07-10 23:11:00,66.0,40.0,-100.00,North,-999,0.0,0.0,39,-99.99,,,-99.99,,2013-07-11 06:11:00,
2013-07-10 23:22:00,66.0,40.0,-100.00,North,-999,0.0,0.0,39,-99.99,,,-99.99,,2013-07-11 06:22:00,
2013-07-10 23:32:00,66.0,41.0,-100.00,North,-999,0.0,0.0,40,-99.99,,,-99.99,,2013-07-11 06:32:00,
2013-07-10 23:43:00,65.0,41.0,-100.00,North,-999,0.0,0.0,42,-99.99,,,-99.99,,2013-07-11 06:43:00,
2013-07-10 23:52:00,65.0,41.0,-100.00,North,-999,0.0,0.0,42,-99.99,,,-99.99,,2013-07-11 06:52:00,